Wind_Speed
19 20 20 21 21 21 21 21 21 21 21 21 21 20 19 19 19 19 19 19 18 17 17 17 18 19 21 23 24 27 29 32 35 37 38 39 38 37 37 37 38 38 38 38 37 38 37 36 36 35 34 33 31 30 28 25 22 21 17 13 10 8 6 5 7 6 5 5 1 5 7 7 8 11 13 15 18 20 21 21 21 23 25 24 23 21 19 16
20 21 21 22 23 23 23 23 24 24 24 24 23 23 22 22 21 21 21 21 20 19 18 18 18 19 20 22 24 26 28 30 34 36 39 40 38 38 38 38 39 39 39 39 40 40 40 38 37 36 35 34 33 32 30 27 24 21 18 15 11 9 8 5 7 10 8 6 4 3 5 6 7 9 11 13 16 18 20 21 21 22 24 25 24 22 20 17
21 21 22 23 23 24 25 25 25 25 25 26 25 25 25 25 24 24 24 24 23 22 21 20 20 20 20 21 23 25 27 29 32 36 39 39 39 39 39 38 39 40 40 41 42 42 41 40 38 37 37 36 35 33 31 29 25 22 19 16 13 11 12 9 10 12 11 8 8 8 6 5 5 7 9 11 14 16 18 20 21 21 24 25 25 24 21 18
22 23 23 23 24 25 25 26 26 26 27 27 27 27 27 27 27 27 27 27 26 25 24 23 23 22 22 22 23 25 27 29 32 35 37 39 40 40 40 39 41 41 41 43 43 43 43 41 39 38 38 38 37 35 33 30 26 23 22 18 15 14 15 14 13 12 10 9 10 10 7 4 4 5 7 10 12 14 17 19 20 20 22 25 25 25 22 20
23 24 24 25 25 26 26 27 27 27 28 28 29 29 29 29 29 29 29 30 29 29 28 27 26 25 24 23 23 25 26 28 33 36 36 38 40 41 41 41 42 42 42 44 44 44 44 42 41 40 40 40 38 37 35 33 27 23 23 21 17 17 18 16 15 12 11 11 10 10 8 4 4 4 6 8 10 13 15 17 19 20 21 24 25 25 23 21
26 26 26 27 27 27 28 29 29 29 29 29 30 30 31 31 31 31 31 32 32 32 31 31 29 28 26 25 25 25 25 26 33 37 35 38 40 40 42 42 44 44 44 44 44 44 45 44 43 42 42 42 40 39 37 35 30 23 23 23 17 19 22 19 16 14 14 13 10 11 10 7 5 3 4 6 9 11 13 16 17 19 20 23 24 25 24 22
28 28 28 29 29 29 30 30 31 31 31 31 31 32 32 33 33 33 33 34 34 34 34 34 33 31 29 28 26 25 25 23 31 38 37 39 41 41 43 44 46 46 45 44 45 45 46 46 45 44 44 43 42 41 39 37 33 25 23 24 20 22 25 22 20 17 17 15 14 16 12 8 7 4 3 4 7 9 11 14 16 18 20 22 23 24 25 23
29 29 30 30 31 31 32 32 33 33 33 34 34 34 34 35 35 36 36 36 36 36 36 36 36 35 33 31 29 26 24 23 32 42 39 39 42 42 43 45 47 48 46 45 46 46 47 48 47 46 46 45 44 43 41 39 35 29 26 26 25 26 25 24 23 21 19 17 19 20 14 10 10 6 3 2 5 7 9 12 15 17 19 21 22 23 24 24
30 31 31 31 32 33 33 34 34 35 35 35 36 36 36 37 37 38 38 38 38 38 38 38 38 38 37 35 33 28 27 29 36 43 40 39 42 43 44 45 47 49 48 47 48 48 49 49 49 48 47 47 46 45 43 40 38 34 31 29 29 29 24 23 25 23 21 19 22 21 14 12 11 8 4 1 3 5 7 11 13 15 18 19 21 22 23 24
31 32 32 32 33 34 35 36 36 37 37 37 37 38 38 38 39 40 40 40 41 41 41 40 40 40 39 38 37 33 33 35 38 43 41 39 42 44 45 46 48 50 50 49 49 50 50 51 51 50 50 50 49 47 44 42 40 37 36 32 30 30 24 23 26 24 22 22 23 20 14 12 12 10 6 2 1 4 6 9 11 13 16 18 20 21 23 24
33 33 34 34 34 35 36 37 37 38 38 38 39 39 39 40 41 41 42 42 43 43 42 42 42 41 41 41 40 39 40 40 41 45 43 39 41 44 45 47 48 51 52 52 51 52 52 53 53 53 52 52 51 49 47 44 42 39 37 34 31 31 26 25 27 26 25 24 25 22 16 14 14 12 7 4 1 2 4 7 9 11 14 16 18 20 21 23
34 35 35 36 36 37 37 38 38 39 39 39 40 40 40 41 42 42 43 44 44 44 44 43 43 43 43 43 43 44 45 45 45 46 45 40 41 44 46 48 49 51 53 53 53 54 54 54 55 55 55 54 53 51 49 47 44 39 36 35 33 31 29 27 28 29 27 26 26 23 19 17 15 13 9 5 3 2 3 5 7 10 12 14 17 18 20 22
35 36 37 37 38 39 39 39 40 40 40 40 40 40 41 42 42 44 44 45 45 45 45 45 45 46 47 47 48 49 50 49 48 48 49 44 43 46 47 49 51 52 54 55 56 56 55 55 56 57 58 57 55 53 51 47 45 41 37 36 35 33 30 27 28 29 29 27 25 21 18 17 16 14 10 8 4 3 2 4 6 8 10 13 15 17 18 20
35 37 38 39 40 41 41 41 41 40 40 40 40 41 41 42 43 44 45 46 46 47 48 48 49 50 51 51 53 54 53 53 53 53 54 50 47 49 49 51 53 53 55 57 58 58 57 57 58 60 60 59 57 55 53 46 42 43 40 38 38 35 30 27 28 29 29 28 24 21 18 17 17 14 12 10 7 4 3 3 4 7 9 11 13 15 17 19
37 38 40 42 42 42 42 42 41 41 41 40 41 41 41 43 44 45 47 47 48 49 51 52 52 53 53 54 55 55 55 56 57 57 58 55 52 52 52 53 55 56 56 58 60 60 59 59 60 63 63 61 60 58 56 47 40 42 43 41 41 38 32 29 30 28 27 27 26 22 19 16 16 15 13 12 9 6 4 4 2 5 7 9 11 13 15 17
39 41 42 43 43 43 43 42 42 41 41 40 40 41 42 44 45 47 49 50 51 53 54 55 55 55 54 55 55 56 56 58 60 61 61 58 56 55 54 55 56 58 58 59 61 62 62 62 62 65 64 63 62 59 58 53 44 44 46 44 41 40 35 30 30 27 25 27 28 26 20 16 16 15 15 14 12 8 6 5 3 3 5 7 9 11 13 15
42 43 44 44 44 44 43 42 41 41 40 40 40 41 43 45 48 50 51 53 54 56 57 57 56 55 55 56 56 57 58 59 62 62 62 61 59 58 57 57 59 61 61 60 62 65 64 64 64 66 67 65 65 62 60 59 50 47 50 46 43 42 36 31 30 26 25 27 29 28 21 18 17 15 16 16 14 10 8 7 5 2 3 5 7 9 11 13
44 45 45 45 45 44 43 42 41 40 40 39 40 43 45 48 50 52 54 56 58 58 59 58 57 56 56 57 57 58 60 61 63 63 63 63 61 60 60 61 61 63 63 62 63 67 67 67 67 68 68 67 66 65 63 63 55 51 53 49 45 43 37 34 32 27 27 28 28 27 22 20 18 15 16 16 16 13 9 9 7 3 1 3 5 7 9 12
46 46 46 46 45 44 42 41 40 40 39 40 42 44 47 50 53 55 57 59 60 60 60 59 58 57 58 59 59 59 60 61 62 64 65 65 64 64 64 64 64 65 65 64 65 69 70 70 69 68 68 68 67 67 65 66 61 55 55 51 47 44 38 35 33 27 26 26 25 26 24 22 20 17 16 15 17 16 12 10 9 5 2 1 3 5 8 10
48 47 46 45 44 42 41 40 39 38 38 41 44 47 49 52 55 58 59 61 62 61 61 60 58 58 59 58 57 55 55 58 61 65 68 68 68 67 67 66 66 67 68 68 68 71 72 71 69 69 69 70 70 69 67 68 66 60 56 52 47 45 41 38 33 27 26 25 24 26 25 23 22 20 17 14 16 17 15 13 10 7 5 2 1 4 6 9
48 47 46 44 42 40 39 38 37 37 40 43 46 49 52 54 57 60 62 63 63 62 61 59 58 58 56 53 49 48 50 55 61 66 69 71 71 70 69 68 68 69 70 71 70 71 73 71 70 71 71 72 72 72 70 69 69 65 58 52 47 44 42 39 33 28 28 28 26 25 25 25 25 23 18 16 17 18 16 15 13 10 7 4 1 3 5 8
48 47 45 43 40 38 37 36 36 38 41 45 48 51 54 56 59 61 64 65 64 61 58 57 56 54 48 45 43 43 46 51 58 66 70 73 74 72 71 70 70 72 73 74 73 71 72 73 73 73 73 74 74 74 73 70 69 66 59 54 50 44 40 38 33 29 28 28 28 26 26 28 28 25 21 18 18 19 20 18 15 12 9 6 3 3 4 6
47 45 43 40 38 36 35 35 37 40 44 47 50 53 56 58 60 63 65 65 62 58 55 55 53 46 41 39 38 39 42 47 56 65 71 74 76 75 74 73 73 74 75 75 74 72 73 75 75 76 75 75 76 76 74 72 70 67 61 57 52 46 42 39 36 32 28 28 29 25 25 29 29 25 23 20 18 19 21 20 17 14 11 8 6 4 4 6
46 43 40 37 35 34 33 35 39 42 46 49 52 55 58 60 62 64 64 63 59 55 53 52 47 40 36 35 34 36 40 45 53 62 71 75 77 77 77 76 76 76 76 76 76 74 75 78 78 78 78 77 78 77 76 74 71 68 64 59 53 48 46 42 38 35 31 29 30 27 24 28 29 27 25 23 20 18 20 21 18 15 13 10 8 5 4 5
44 41 37 34 33 32 34 37 41 44 47 51 54 57 59 62 64 64 63 61 57 53 51 47 40 35 32 30 31 33 37 43 50 59 70 76 78 80 79 79 78 79 78 78 78 76 77 80 81 80 80 79 78 78 78 76 73 71 69 64 56 52 51 46 41 36 31 31 33 32 29 29 30 29 27 25 22 20 20 21 19 16 13 11 9 7 5 5
41 37 34 32 31 32 35 39 43 46 50 53 56 59 62 64 64 62 61 58 54 51 47 41 35 31 28 27 28 31 35 41 48 57 68 75 79 81 81 80 80 81 80 80 80 79 79 81 82 81 80 79 79 81 80 78 75 73 71 68 61 55 53 51 46 37 32 32 34 35 33 31 31 30 29 28 26 22 21 21 19 17 15 12 11 9 6 6
37 33 31 30 30 33 37 41 45 49 52 55 58 61 64 64 62 60 59 55 52 50 44 36 31 28 26 25 26 28 32 39 46 55 65 74 80 82 82 82 82 82 82 82 82 81 81 82 82 82 81 80 81 83 82 81 78 75 73 71 66 59 55 54 50 40 34 33 34 36 35 33 33 32 31 30 28 25 23 21 18 17 16 14 13 11 9 7
33 30 29 29 31 35 39 43 47 50 53 57 60 63 65 63 60 60 58 53 50 47 40 33 28 25 24 24 24 26 30 36 43 51 61 72 80 84 84 84 84 85 84 84 83 83 83 83 84 84 83 82 83 84 84 83 80 77 75 74 72 65 58 55 50 42 38 36 35 37 36 35 35 34 33 30 28 26 24 22 19 18 18 16 14 14 12 9
29 28 28 30 33 37 41 45 49 52 55 58 62 65 65 61 60 60 56 52 50 44 36 30 26 22 22 22 22 24 28 34 41 49 58 70 80 84 86 86 85 85 85 85 85 86 86 85 87 86 85 84 83 84 85 83 81 79 78 76 74 68 60 56 51 44 41 40 38 37 37 37 36 35 33 29 28 27 25 23 21 20 20 17 15 16 15 12
27 27 28 32 35 39 43 46 50 53 57 60 63 65 64 60 61 60 55 51 48 42 33 28 23 20 19 19 20 22 26 31 38 46 55 68 78 84 86 86 84 84 84 83 86 89 89 88 88 87 86 86 85 85 86 84 82 80 78 76 75 69 61 57 54 47 43 42 41 39 36 35 35 35 34 31 30 30 27 25 23 22 22 20 18 18 17 14
26 27 30 33 37 41 45 48 52 55 59 62 65 65 62 61 62 59 54 50 45 39 32 24 20 18 17 17 17 19 24 28 34 42 53 65 76 83 86 85 85 85 84 84 88 90 89 88 87 87 88 87 85 86 87 86 84 81 78 77 75 71 62 57 55 51 46 43 42 41 38 36 36 37 38 37 35 33 30 27 24 23 24 23 21 19 19 17
25 28 31 35 39 43 46 49 53 56 60 64 65 64 61 62 63 59 54 49 42 36 30 22 17 16 15 15 15 17 21 25 32 40 51 63 74 82 86 86 86 86 87 88 90 89 88 86 86 88 88 85 84 87 88 87 85 82 80 78 76 73 64 58 57 55 52 46 43 43 40 38 38 39 41 41 39 35 32 30 27 24 24 23 22 20 19 18
26 29 33 37 41 44 48 51 54 57 61 64 65 63 61 63 63 59 53 48 39 33 27 20 15 14 14 14 14 16 20 25 31 39 49 60 72 82 87 87 87 88 90 92 92 90 88 86 86 86 85 85 86 87 87 87 86 83 82 79 77 75 67 61 58 57 56 51 45 42 41 40 39 39 41 42 39 36 33 32 30 25 22 21 21 20 19 19
27 30 34 38 42 46 49 52 55 58 62 64 65 63 63 64 63 58 52 46 38 31 24 17 14 13 13 13 13 15 20 25 30 38 47 58 70 81 86 88 89 90 91 92 92 92 90 88 87 85 84 85 86 87 88 88 86 84 83 80 79 77 72 65 60 57 57 54 47 44 43 41 39 39 41 41 40 37 34 33 31 27 25 23 21 21 20 20
28 32 36 39 43 47 50 53 56 59 62 64 64 63 64 65 62 57 51 43 36 30 22 15 13 13 12 12 13 15 19 23 29 36 46 57 70 80 86 89 90 91 91 91 90 91 92 90 89 88 87 88 88 88 89 89 87 84 83 81 80 80 76 71 65 59 56 54 50 48 46 42 40 40 40 41 41 39 36 35 32 28 28 26 23 23 22 22
29 33 37 40 44 48 51 54 57 60 63 65 65 63 64 65 62 56 49 41 35 29 20 14 12 13 11 11 12 14 18 22 27 35 45 57 69 79 86 90 92 92 93 92 92 92 92 92 91 90 91 92 91 91 90 90 89 85 83 83 83 82 79 76 73 64 57 54 52 51 48 44 42 41 41 41 41 41 39 37 35 32 31 29 27 26 25 25
30 34 38 41 45 48 52 55 57 61 64 65 65 64 65 65 61 55 47 40 35 28 19 13 11 13 11 10 12 14 17 22 27 35 45 56 67 78 86 90 93 95 94 93 93 94 93 92 91 91 92 94 94 93 92 92 91 88 86 87 86 84 81 78 77 70 63 57 54 53 51 47 45 43 42 40 40 41 41 40 38 35 33 32 29 28 27 26
32 35 39 42 46 49 52 56 58 61 64 65 65 64 65 65 61 53 46 40 34 26 18 12 11 12 12 10 12 14 18 22 26 34 44 55 66 77 85 90 93 94 94 93 95 96 95 94 93 91 92 93 93 92 92 92 91 89 88 88 88 86 82 80 79 75 70 64 58 56 53 48 46 46 44 41 40 42 43 43 41 37 35 33 30 28 28 26
33 36 40 43 46 50 53 56 59 62 64 66 65 65 65 65 60 52 44 39 33 23 16 12 10 12 12 11 11 14 17 22 27 33 43 53 64 75 84 89 91 90 90 92 95 95 95 95 93 92 92 93 92 92 92 92 91 88 87 88 90 90 86 83 81 78 76 70 62 59 55 50 48 49 48 43 41 44 46 45 44 41 38 34 31 30 29 26
33 37 41 43 46 50 53 56 59 62 64 65 65 64 65 65 60 52 43 37 31 21 14 11 10 12 12 10 10 13 16 21 27 34 42 52 63 73 81 88 90 90 89 91 92 93 94 94 93 93 93 93 92 93 92 92 91 88 88 89 91 92 90 87 84 80 78 73 66 61 58 53 50 52 52 48 44 45 46 46 45 43 39 35 34 34 32 29
34 38 41 44 46 50 53 57 60 62 64 65 65 64 64 64 60 51 42 36 29 19 14 11 10 11 11 10 10 13 16 19 26 34 42 52 63 72 80 87 90 90 91 92 93 95 96 96 95 93 92 92 92 93 92 91 91 89 90 91 92 93 93 91 87 83 78 74 69 64 60 55 52 53 55 54 50 48 47 47 46 43 39 37 36 36 34 31
34 38 41 43 46 49 53 57 60 62 64 65 65 64 64 63 58 50 42 35 27 19 14 11 11 11 12 12 11 12 15 19 24 31 40 50 61 71 80 86 88 89 91 93 95 98 99 97 93 90 90 90 91 92 91 90 91 90 91 93 94 95 94 93 91 86 79 74 72 68 63 59 55 53 55 56 54 52 50 48 46 43 41 40 39 37 36 34
36 39 41 43 46 49 53 56 60 62 64 65 64 63 63 63 58 50 42 35 26 18 13 12 11 12 13 12 10 11 15 18 22 28 37 47 57 69 79 85 88 90 93 94 95 97 97 95 91 88 87 87 89 90 90 90 91 91 92 95 95 95 95 94 93 90 82 75 73 70 67 64 59 56 55 55 54 53 51 49 46 44 43 42 42 41 40 37
37 40 42 44 46 49 53 56 59 62 63 64 63 62 63 63 59 50 43 36 26 17 13 12 12 13 13 13 11 11 13 17 21 27 34 42 53 66 77 85 88 91 93 93 94 95 94 91 90 89 87 88 89 89 89 90 91 92 92 94 95 96 95 95 95 93 87 79 76 74 70 67 63 58 54 54 55 54 52 50 47 46 44 43 43 43 41 37
38 40 42 44 47 50 53 56 59 61 63 64 63 61 61 62 58 51 43 37 27 17 12 11 13 14 15 14 12 11 11 14 19 25 31 38 48 61 74 83 88 90 92 93 94 94 92 90 90 89 88 89 90 90 90 90 91 92 93 94 97 98 97 96 96 96 92 85 79 76 73 69 65 61 56 55 55 54 53 50 47 45 45 44 45 43 40 37
39 41 42 43 47 50 53 56 58 60 62 63 62 60 60 61 58 51 43 37 28 18 12 11 13 16 16 15 13 11 10 12 16 22 28 35 44 55 69 80 87 91 93 94 94 93 92 91 90 88 86 87 88 88 89 90 90 92 95 96 98 100 98 97 98 98 97 91 81 77 76 71 67 64 58 56 57 56 53 50 45 43 43 44 45 43 38 35
39 41 43 45 47 50 53 55 58 59 60 61 61 59 59 59 57 51 44 37 29 19 12 11 13 16 17 16 14 12 11 12 15 20 25 32 40 51 64 76 85 90 93 94 94 94 93 92 91 90 87 88 88 86 87 89 90 92 94 96 98 100 100 100 100 100 100 95 85 80 78 73 69 66 61 58 59 57 54 51 46 44 44 42 45 46 42 38
40 42 44 46 48 50 52 55 57 57 58 59 60 58 58 58 57 52 45 38 30 20 12 10 12 15 17 17 16 14 13 12 15 20 25 30 39 49 60 72 82 88 92 94 94 93 93 92 93 92 89 89 90 88 87 89 91 92 95 97 99 102 104 104 103 102 102 99 91 83 79 75 71 67 63 60 60 58 56 53 50 50 49 45 45 47 45 42
40 42 44 47 49 50 52 54 56 57 57 58 59 57 57 58 57 53 46 39 32 22 13 9 10 15 17 18 17 16 14 13 14 18 24 30 37 47 57 67 78 87 91 93 93 91 91 92 93 92 90 90 91 89 88 90 92 94 97 99 101 103 105 106 105 103 102 100 94 86 80 76 72 68 64 61 61 60 56 53 53 53 52 49 46 44 40 38
40 43 45 47 49 50 52 53 55 56 56 58 58 57 56 57 56 54 48 40 33 25 15 9 9 13 17 19 19 18 16 15 14 16 22 28 35 43 54 65 76 85 90 92 92 92 92 92 92 92 91 91 91 90 89 91 95 96 96 99 103 104 104 104 103 102 102 99 94 89 83 78 72 68 65 63 63 61 56 53 54 54 53 52 47 42 39 37
41 44 46 47 49 50 52 53 53 54 56 57 58 56 55 56 56 54 49 42 35 27 17 10 8 11 15 19 20 20 19 17 16 16 18 23 30 39 49 61 72 83 89 92 92 93 93 93 93 93 93 93 93 93 92 93 96 98 97 100 104 104 103 103 102 102 102 98 94 93 89 83 75 70 67 65 64 62 54 50 53 55 54 53 50 45 43 41
42 44 46 47 49 50 52 52 53 54 55 57 57 56 54 55 55 54 50 43 35 28 18 10 7 9 14 18 21 22 21 20 19 17 16 20 26 34 43 54 66 77 86 91 93 93 94 94 94 94 93 93 95 96 96 97 98 99 98 101 104 103 101 102 103 103 102 99 96 96 94 88 80 74 70 68 67 65 56 47 50 56 56 55 54 51 47 44
Wind_Direction
305 305 304 304 303 303 302 301 300 300 299 297 295 293 291 289 285 282 279 277 274 271 269 266 263 259 256 254 253 249 244 240 236 232 229 228 226 226 226 225 223 219 216 211 208 208 208 206 203 200 200 201 202 203 204 206 206 202 202 195 178 168 162 171 173 186 214 187 230 309 320 347 10 11 14 17 17 16 14 17 16 17 20 23 25 23 20 17
301 301 301 302 301 301 301 300 299 298 297 295 293 292 290 289 287 283 280 277 275 272 269 267 264 261 257 254 253 251 249 245 240 235 231 227 225 225 224 224 223 220 216 213 208 208 207 205 203 200 199 201 202 203 204 206 205 201 201 196 179 156 154 182 183 184 203 191 193 265 295 326 5 8 9 15 17 16 14 16 17 17 20 22 25 25 23 20
297 298 298 299 299 299 299 298 297 296 295 293 292 291 290 289 287 285 282 279 277 274 272 270 267 264 259 256 252 250 250 248 245 240 234 229 225 224 223 223 223 220 217 214 210 208 207 205 202 199 199 201 202 203 204 205 205 200 199 192 181 171 166 184 200 192 198 200 191 196 239 294 353 360 2 14 14 16 16 15 17 19 20 22 24 26 25 21
295 295 296 296 297 297 297 296 296 295 294 293 291 290 289 288 286 284 282 280 277 275 273 271 269 266 261 258 254 251 249 248 248 243 237 232 226 224 222 221 222 220 218 215 211 208 206 205 201 199 199 201 202 203 204 203 202 200 197 186 176 185 181 183 201 200 203 208 201 198 211 271 323 349 355 7 9 15 17 15 17 20 20 22 24 26 26 23
293 294 294 295 295 296 296 295 295 294 293 293 291 290 288 287 285 283 282 280 278 276 274 271 269 266 263 259 255 253 249 248 249 244 240 237 230 225 222 220 221 220 218 216 212 208 207 204 201 199 199 200 202 203 204 203 202 200 197 187 175 187 189 186 197 201 210 208 201 202 187 212 280 329 344 359 8 13 17 15 17 21 22 21 24 26 26 25
294 294 294 295 295 295 295 295 294 293 293 291 290 289 287 286 284 282 280 279 277 276 274 272 270 267 264 260 255 253 249 250 251 246 241 240 234 227 223 219 220 220 217 216 213 208 206 205 201 199 199 200 202 203 204 203 201 199 197 192 183 190 191 187 192 200 213 200 188 208 199 202 240 284 327 354 7 11 17 15 17 23 23 21 23 26 26 26
296 295 295 295 295 295 294 294 293 293 292 291 289 287 286 284 283 281 280 278 276 275 274 272 271 269 265 262 257 253 249 250 255 249 240 239 235 229 224 219 219 219 216 215 213 209 206 205 202 199 198 199 202 204 203 202 200 196 193 194 192 192 189 186 190 198 208 194 185 210 219 212 221 238 289 345 4 10 16 15 19 24 24 21 22 26 27 26
298 297 296 297 296 296 295 294 294 293 292 291 290 288 286 284 282 280 279 278 277 275 273 271 270 268 266 263 259 255 250 246 250 249 239 236 236 231 226 220 218 218 215 213 213 209 205 205 203 199 198 199 203 204 203 203 200 195 192 191 192 191 188 188 191 193 198 197 197 211 221 216 216 223 250 325 360 9 18 17 18 24 25 22 21 25 27 26
299 298 298 298 298 297 297 296 295 294 293 291 290 288 286 284 282 280 279 277 276 274 273 271 269 267 266 264 261 257 251 245 246 249 243 236 236 233 228 222 218 218 215 211 211 209 205 204 203 200 198 199 203 204 203 203 200 201 198 191 189 190 189 191 195 192 193 202 205 211 214 211 218 224 232 282 355 3 19 19 16 23 26 22 21 24 27 27
300 300 299 299 299 299 298 298 297 295 294 292 290 288 286 283 281 280 278 277 275 274 273 271 269 267 265 263 262 258 252 249 248 251 247 239 237 234 230 225 220 218 215 211 210 208 205 203 203 201 199 199 202 202 203 202 201 204 204 197 191 190 190 194 198 194 195 202 205 213 217 208 221 231 236 257 334 356 13 16 15 23 25 24 21 22 26 27
301 302 301 301 301 301 300 299 298 297 295 293 291 288 286 283 281 279 277 276 275 274 273 272 271 268 266 263 261 259 255 252 250 251 248 241 239 236 231 228 222 218 215 212 209 208 204 202 202 202 200 200 201 202 202 202 202 204 204 199 192 191 193 197 201 199 198 201 205 220 226 212 219 233 243 254 245 334 2 11 12 21 25 25 22 21 25 27
302 303 303 303 303 303 302 301 300 298 295 293 291 288 285 283 281 279 277 276 276 275 274 273 272 270 268 265 263 260 257 254 252 253 250 242 239 238 232 228 224 219 215 213 210 208 204 201 202 202 201 200 200 202 203 203 203 203 202 199 193 194 197 197 203 204 202 201 205 217 226 216 216 228 240 252 236 287 342 4 8 18 25 25 24 22 24 27
303 304 305 305 305 305 304 302 301 299 296 294 291 287 285 282 280 279 277 277 277 276 275 274 273 271 269 267 264 261 259 257 255 253 251 242 237 237 232 228 225 220 216 213 210 208 204 201 202 202 202 200 199 201 202 203 206 204 201 200 197 196 196 195 202 206 205 204 204 212 221 219 217 222 234 249 242 243 307 348 1 14 24 26 24 23 24 28
304 306 306 307 306 306 305 304 302 299 297 294 290 287 284 282 280 279 279 279 278 278 277 276 275 273 270 267 265 262 259 258 255 251 249 242 235 234 231 227 224 220 216 212 211 208 204 202 201 202 202 199 199 200 199 200 207 206 202 201 201 200 195 194 201 205 207 207 205 209 217 220 221 222 226 242 248 231 258 308 352 9 20 26 25 24 25 28
306 307 308 308 307 307 306 304 302 300 297 294 290 287 285 283 282 282 281 282 282 281 281 280 278 275 272 268 264 261 257 254 251 249 247 242 235 231 230 226 223 220 215 211 210 208 204 202 201 202 201 199 199 200 199 197 201 206 205 202 204 204 198 197 200 202 204 205 205 206 210 220 227 231 227 234 245 230 232 265 318 1 15 24 26 25 26 29
308 309 309 308 308 307 306 304 302 300 297 294 290 288 286 285 285 285 285 286 286 285 285 283 282 278 274 270 264 259 254 250 247 245 243 240 234 230 227 225 222 220 215 211 210 208 205 202 202 202 200 199 200 199 199 196 197 203 204 203 205 203 197 196 198 198 201 204 208 208 207 214 228 238 231 228 240 233 225 246 267 343 9 21 25 27 29 32
310 310 310 309 308 307 306 304 302 299 297 294 291 289 288 288 288 288 289 290 290 290 289 287 285 281 277 272 265 259 253 247 243 240 239 237 233 228 225 223 221 219 215 211 209 208 206 203 202 202 199 199 200 199 198 197 197 199 200 202 203 199 194 195 196 196 196 198 205 208 205 208 219 234 230 223 232 232 219 231 249 286 360 18 24 27 32 35
311 311 310 309 308 307 305 303 301 299 296 294 291 291 291 291 292 292 293 293 293 293 293 291 288 285 280 274 268 260 252 244 239 236 235 233 230 226 222 220 219 217 214 211 209 208 206 203 202 201 199 199 200 200 199 199 199 198 198 200 200 196 194 196 198 198 195 195 202 206 203 202 210 228 233 225 228 231 222 220 234 247 311 19 24 28 36 41
313 312 310 309 308 306 304 302 300 299 296 294 293 293 294 294 295 296 297 297 297 297 296 294 291 287 283 277 270 260 251 243 236 232 230 228 226 223 220 218 217 216 213 210 208 207 206 204 201 199 198 200 201 201 201 200 200 199 198 199 199 197 196 196 197 196 195 198 206 208 204 202 207 222 234 230 228 232 227 218 223 230 224 12 26 31 40 46
313 312 310 309 308 305 303 301 301 299 297 296 296 296 297 298 299 300 300 301 301 301 300 297 294 290 286 280 270 259 249 239 232 228 226 224 222 220 217 215 214 214 212 210 208 207 206 204 201 199 199 200 201 201 202 201 202 202 199 198 198 199 201 200 200 199 200 203 207 208 207 205 208 217 228 234 233 232 229 222 218 217 213 202 50 42 45 53
313 312 311 310 307 304 303 302 301 299 298 298 299 300 300 302 303 304 305 305 305 304 302 299 296 293 287 278 267 256 244 234 226 223 222 220 218 216 215 212 212 212 211 209 208 206 206 203 200 199 199 199 200 201 202 202 203 203 201 198 196 196 198 200 201 203 204 205 209 213 210 207 209 214 219 227 232 230 226 221 214 211 210 202 148 72 62 61
314 313 311 309 306 304 303 303 302 301 301 302 303 304 304 305 307 308 309 308 308 307 304 302 299 295 286 274 264 252 241 230 222 218 217 217 216 213 211 210 209 210 210 208 207 205 205 203 201 199 199 199 199 201 202 202 202 203 201 198 195 192 191 193 196 201 203 204 209 215 214 209 208 211 212 213 223 228 222 214 206 205 205 199 182 124 89 74
314 313 311 308 306 305 305 304 303 303 304 305 306 307 308 310 311 312 312 311 311 309 307 306 302 295 283 272 262 249 239 228 219 214 212 212 212 211 209 207 207 209 208 207 206 204 204 203 201 199 198 198 199 201 202 202 202 202 200 197 194 190 188 190 194 198 202 202 204 209 211 209 207 209 210 207 217 229 223 212 204 203 201 198 194 156 117 93
314 313 310 308 306 306 306 306 306 307 308 309 310 311 312 314 315 316 315 314 313 311 311 309 304 295 283 272 259 246 236 227 218 212 209 208 208 208 207 204 204 206 207 206 205 203 203 203 201 199 198 198 199 200 201 202 201 201 200 197 194 190 188 188 191 195 198 197 199 202 206 210 209 207 207 207 214 226 225 215 207 205 203 200 197 176 142 111
314 311 309 308 308 308 308 309 309 310 312 313 314 314 316 318 319 319 318 317 315 315 315 311 304 295 284 269 256 244 233 225 218 212 207 205 205 206 205 203 202 203 204 204 203 203 203 203 201 199 198 197 198 199 201 201 200 200 200 198 195 192 190 187 187 192 194 192 195 199 202 209 210 207 206 208 211 219 225 222 213 208 205 202 197 188 164 125
313 310 309 309 310 310 311 312 313 314 315 316 317 318 320 322 322 321 320 319 318 319 318 312 303 294 282 268 254 242 232 223 218 212 206 203 202 204 204 202 200 201 202 202 202 202 203 203 201 199 197 197 197 199 200 201 200 200 199 198 196 194 192 189 189 191 192 192 194 196 199 205 207 206 206 207 210 214 220 225 221 212 207 202 195 192 180 146
311 309 309 310 312 313 314 316 317 318 319 320 321 322 323 324 323 323 323 322 322 322 320 313 304 292 279 267 254 241 232 223 217 212 206 201 200 201 201 201 199 199 200 200 200 201 202 202 200 199 197 197 198 198 199 200 200 199 199 198 197 196 193 192 194 196 197 198 198 196 198 201 202 202 205 209 212 213 214 223 227 218 211 205 195 192 188 166
310 310 311 312 315 316 317 319 320 321 322 323 324 324 325 326 325 325 326 325 325 324 321 313 304 291 278 267 255 242 231 224 217 211 205 201 199 199 199 199 198 197 198 198 198 201 202 201 200 198 197 197 198 198 199 200 199 199 199 198 198 198 198 198 199 199 202 203 200 198 199 202 204 206 209 211 211 208 208 217 225 220 215 213 201 195 192 177
310 311 313 316 319 319 320 322 322 323 324 325 326 326 327 328 328 328 329 328 327 326 322 313 304 291 279 268 256 243 231 223 216 209 205 201 199 197 197 198 197 196 197 196 197 200 201 200 199 198 196 197 198 198 199 199 199 199 199 199 198 199 201 202 200 200 204 205 201 198 200 203 207 211 210 208 204 200 202 209 216 220 219 220 214 203 197 184
311 312 316 320 322 322 323 324 324 325 326 327 328 329 329 330 331 331 332 331 329 327 323 314 302 290 279 268 256 244 232 222 214 208 204 201 198 196 196 196 196 196 196 195 197 200 200 200 198 196 197 197 197 198 198 198 199 200 200 200 198 198 200 200 198 199 201 201 199 198 197 199 205 208 203 200 199 198 200 204 210 219 222 222 219 210 201 189
312 316 321 323 324 324 325 326 326 328 328 329 330 331 331 332 333 334 333 333 330 327 324 317 303 292 280 266 254 243 233 222 212 207 203 200 198 196 195 194 194 194 194 194 197 200 200 199 198 196 197 197 196 197 198 198 199 199 200 200 198 197 199 198 198 199 199 197 197 197 196 197 203 204 199 199 202 202 204 205 207 218 224 222 220 214 205 195
314 320 324 325 326 326 327 327 328 329 330 331 333 333 333 335 336 335 335 334 332 328 325 318 304 293 280 265 251 239 232 220 210 204 201 199 196 194 194 193 192 192 193 194 197 199 200 199 198 197 197 196 196 198 198 197 199 199 199 200 198 197 198 197 198 201 200 197 197 198 197 198 201 203 202 202 204 205 204 202 202 213 222 219 218 215 208 201
318 324 326 326 327 328 328 329 330 331 332 334 335 335 336 338 338 337 336 335 333 328 324 317 303 292 278 264 249 235 227 219 209 202 198 197 195 193 193 191 191 192 193 194 195 196 199 198 198 197 197 196 197 198 198 198 198 199 199 199 198 197 196 195 197 201 202 199 198 199 197 197 199 202 204 204 205 205 204 200 199 207 218 217 215 215 211 206
323 327 327 328 329 329 329 330 331 333 334 336 336 337 338 340 340 338 336 335 333 328 323 317 304 290 276 262 246 232 224 217 209 201 196 195 194 193 192 191 190 192 194 195 194 195 196 197 197 196 196 197 198 198 198 197 197 199 200 198 198 197 196 195 197 199 199 196 196 196 195 195 197 201 205 206 207 207 206 202 198 205 218 220 218 219 216 212
326 328 328 329 330 330 330 331 332 334 336 338 338 339 340 342 341 339 337 335 332 328 322 315 304 290 277 262 243 229 223 216 207 201 196 193 192 192 191 190 190 191 193 195 195 195 196 195 196 195 195 197 198 199 198 196 196 199 200 198 198 198 197 197 197 195 193 191 192 193 193 195 198 201 205 208 210 209 208 205 200 204 216 218 220 227 226 218
328 328 329 330 331 331 331 332 333 336 338 340 340 341 342 343 341 339 337 335 332 328 320 311 302 291 279 261 242 226 220 215 205 199 195 193 191 191 190 191 190 191 193 193 194 196 197 196 195 195 195 196 197 198 198 196 195 198 199 199 199 198 197 198 199 196 192 189 190 191 192 194 197 200 204 207 212 212 211 209 204 204 211 213 218 228 231 223
328 328 329 331 332 331 331 332 335 337 340 341 342 342 343 344 342 340 338 336 333 328 319 305 293 286 275 258 241 224 216 211 202 197 195 192 190 190 191 191 191 191 192 192 193 195 196 196 196 195 196 196 197 197 197 196 195 197 198 199 199 199 198 199 200 199 196 195 194 192 192 195 197 199 199 202 209 211 211 211 207 206 211 213 216 223 228 223
328 328 330 332 332 331 331 333 336 339 341 342 343 343 344 344 343 341 339 336 335 330 318 300 285 279 272 257 241 227 215 208 201 197 195 192 190 190 191 192 193 193 192 192 194 195 195 196 196 196 197 197 197 197 196 195 195 198 200 200 199 199 199 201 202 202 202 202 200 196 194 197 199 198 194 196 204 207 207 208 206 205 209 212 214 219 224 221
328 329 331 333 332 331 333 335 337 340 342 343 344 344 345 345 344 343 340 337 335 331 315 295 280 273 266 249 236 228 218 208 200 196 194 191 190 190 192 193 193 193 193 194 195 195 196 197 196 196 198 197 197 197 196 195 195 197 200 202 201 199 199 202 204 204 205 206 202 197 196 197 199 198 193 194 200 203 205 207 205 204 208 213 215 216 219 217
328 329 332 334 333 333 334 336 338 340 342 344 344 345 346 346 345 344 341 338 336 329 311 288 271 266 261 245 228 222 217 209 201 196 193 192 190 191 192 193 193 192 193 195 196 196 197 198 196 197 198 197 196 197 196 195 195 197 201 202 202 200 199 201 204 206 208 207 201 198 198 197 198 199 196 196 200 202 204 207 208 208 212 216 216 214 214 213
328 330 332 334 333 334 335 336 338 340 343 345 345 346 347 347 346 345 343 340 335 325 305 281 261 259 258 244 224 214 211 209 204 198 195 193 192 191 192 193 193 192 193 196 196 196 198 199 197 198 199 197 197 197 196 195 195 198 201 202 203 202 201 201 204 205 207 206 202 199 200 199 199 199 199 200 203 205 207 210 212 213 214 215 214 211 212 215
328 330 332 333 333 334 335 337 339 341 343 345 346 346 348 348 347 346 344 342 336 323 304 279 257 250 250 243 227 213 208 206 204 202 199 196 194 192 192 192 192 193 194 196 197 197 199 199 198 199 199 198 197 197 196 196 197 199 202 203 204 204 202 202 205 205 205 206 204 202 202 202 199 197 199 203 205 207 209 212 214 213 213 213 212 211 214 219
329 331 332 334 334 335 336 337 339 341 343 345 346 347 348 348 348 347 345 344 338 325 302 276 254 241 241 238 225 214 210 204 202 203 203 199 196 194 193 192 192 194 195 197 199 199 199 198 197 198 200 200 199 197 197 197 198 201 203 204 204 204 203 203 205 205 205 206 205 203 203 202 199 196 198 202 205 207 208 210 212 213 213 213 213 214 217 222
330 331 332 334 334 335 337 338 340 342 343 345 346 347 348 349 349 348 346 345 342 329 302 276 256 242 238 234 224 216 213 206 202 202 202 201 199 196 194 193 193 195 196 197 199 200 200 199 198 197 199 201 200 198 198 198 200 202 204 205 206 206 205 205 206 206 206 206 205 204 202 201 199 196 197 201 205 207 208 209 211 212 212 213 215 218 220 223
330 331 332 335 335 336 338 339 341 342 344 345 347 347 349 349 349 349 347 345 344 334 307 276 252 242 236 232 226 219 214 211 207 202 201 201 200 198 195 194 194 195 197 198 200 200 198 199 200 198 200 202 200 198 199 199 200 203 205 206 207 207 206 206 207 207 207 206 205 205 203 201 199 197 196 199 203 207 209 209 209 210 212 215 218 221 222 223
330 330 331 334 336 337 339 340 342 343 344 345 346 348 349 350 350 350 348 346 344 336 315 278 247 238 235 229 225 220 212 211 209 203 201 201 200 199 196 195 195 196 198 198 200 200 198 199 200 199 201 203 201 199 200 200 201 205 206 207 208 207 207 207 208 208 208 206 204 205 205 202 200 199 197 198 201 204 206 204 204 208 212 215 218 219 217 217
330 330 331 334 335 337 340 341 343 344 344 345 346 348 349 350 351 350 349 347 344 336 319 286 250 237 233 227 223 221 213 209 207 201 200 201 200 199 197 197 197 198 199 199 200 200 198 199 200 199 200 203 202 201 203 202 203 205 207 208 209 209 209 209 208 209 208 206 203 204 205 202 201 201 200 199 200 202 202 200 200 205 209 214 219 219 216 218
330 330 332 335 336 338 341 342 343 344 344 345 347 348 349 351 351 351 350 348 345 337 323 294 257 237 231 226 222 220 214 211 209 202 198 199 200 199 198 198 198 199 200 201 201 200 199 199 201 200 200 203 203 201 204 205 205 206 207 208 209 210 210 209 209 209 208 206 203 203 203 202 201 202 201 200 200 200 199 199 202 207 210 214 222 226 224 224
329 331 333 335 337 339 341 342 343 344 344 345 347 348 350 351 352 352 351 350 347 339 324 296 262 239 230 225 221 220 215 213 212 206 202 201 201 200 198 198 200 200 200 202 201 201 200 200 201 201 201 204 204 203 204 207 207 207 208 209 210 210 210 210 210 209 209 207 204 203 202 201 201 203 202 200 200 200 199 200 205 209 211 214 221 226 226 225
329 330 333 336 337 339 341 343 343 344 344 346 348 348 350 351 352 352 352 351 348 341 327 301 269 242 229 224 220 219 216 214 215 212 208 205 203 202 200 199 200 200 201 202 201 201 201 201 202 202 202 204 205 205 206 209 209 208 209 211 211 210 211 211 211 211 210 208 205 205 205 203 201 203 203 200 199 199 198 202 205 207 209 212 216 220 219 219
329 331 333 336 338 339 341 342 343 344 344 346 348 348 349 351 353 353 353 351 348 344 332 308 276 245 229 222 220 218 216 215 216 215 212 208 206 205 203 202 202 202 201 201 201 201 201 201 202 203 204 204 205 206 207 210 212 209 209 212 211 210 210 211 212 212 211 208 206 207 209 206 202 203 203 200 198 197 198 205 208 208 208 209 211 213 212 211
329 331 333 336 338 339 340 341 342 344 345 346 348 348 349 351 353 354 353 351 348 345 336 312 277 247 231 222 219 219 217 214 215 215 212 209 208 208 207 205 205 204 203 201 202 202 201 202 202 204 205 206 207 208 208 210 212 210 209 212 211 209 210 212 213 212 211 208 207 208 210 208 204 203 201 198 196 195 196 202 206 207 207 206 207 209 210 209
Height
10942 10942 10941 10941 10940 10940 10940 10939 10939 10939 10939 10938 10938 10938 10938 10939 10939 10940 10940 10940 10940 10940 10941 10941 10941 10942 10942 10943 10944 10944 10945 10946 10947 10949 10951 10953 10957 10959 10962 10965 10967 10970 10973 10976 10979 10980 10982 10985 10988 10990 10993 10995 10997 10999 11001 11002 11004 11007 11009 11011 11013 11013 11013 11014 11015 11016 11017 11017 11016 11015 11015 11015 11015 11014 11012 11011 11009 11007 11006 11004 11002 11001 10999 10997 10996 10995 10993 10992
10941 10940 10939 10939 10938 10938 10937 10937 10937 10936 10936 10935 10935 10935 10935 10936 10936 10936 10937 10937 10937 10938 10938 10938 10939 10939 10940 10940 10941 10942 10942 10943 10943 10945 10946 10950 10954 10955 10958 10961 10963 10967 10970 10973 10975 10976 10979 10982 10985 10989 10991 10994 10996 10997 10999 11001 11003 11006 11008 11010 11012 11012 11012 11014 11015 11016 11017 11017 11017 11017 11017 11016 11015 11015 11013 11012 11010 11009 11007 11006 11004 11002 11000 10999 10997 10996 10995 10994
10939 10938 10937 10937 10936 10935 10934 10934 10934 10933 10933 10932 10932 10932 10932 10932 10932 10933 10933 10934 10934 10934 10935 10935 10936 10936 10937 10938 10938 10939 10939 10940 10940 10941 10943 10947 10950 10951 10955 10957 10960 10963 10966 10969 10971 10973 10976 10980 10984 10987 10990 10992 10994 10996 10998 11000 11002 11005 11007 11009 11011 11012 11012 11013 11015 11016 11016 11017 11017 11018 11019 11017 11016 11015 11014 11013 11011 11010 11009 11007 11005 11004 11002 11000 10999 10997 10996 10995
10937 10936 10935 10934 10934 10933 10932 10931 10931 10930 10930 10929 10929 10929 10928 10928 10929 10929 10929 10930 10930 10931 10931 10932 10932 10933 10934 10935 10935 10936 10936 10937 10936 10937 10941 10943 10945 10948 10951 10953 10956 10959 10962 10965 10968 10971 10974 10977 10981 10984 10987 10989 10991 10994 10996 10998 11000 11003 11006 11008 11010 11011 11012 11012 11014 11015 11015 11016 11016 11017 11017 11016 11016 11016 11015 11013 11012 11011 11010 11008 11007 11005 11003 11002 11000 10999 10997 10996
10935 10934 10933 10932 10931 10930 10929 10928 10928 10927 10927 10926 10925 10925 10925 10924 10925 10925 10925 10925 10926 10926 10927 10928 10929 10929 10931 10931 10932 10932 10934 10934 10931 10934 10938 10938 10941 10944 10947 10950 10951 10954 10958 10961 10965 10968 10972 10975 10978 10981 10984 10987 10989 10992 10994 10996 10999 11001 11004 11007 11009 11010 11011 11011 11012 11013 11014 11015 11016 11016 11015 11015 11015 11015 11015 11014 11013 11011 11010 11009 11008 11006 11004 11003 11001 11000 10998 10997
10932 10931 10930 10929 10928 10927 10926 10925 10924 10924 10923 10923 10922 10921 10921 10920 10920 10920 10920 10921 10921 10922 10922 10923 10924 10925 10927 10927 10929 10930 10931 10931 10927 10930 10934 10934 10936 10940 10942 10945 10946 10949 10953 10957 10962 10966 10969 10972 10975 10979 10981 10984 10986 10989 10991 10994 10997 11000 11003 11005 11007 11008 11009 11010 11011 11012 11013 11014 11016 11016 11014 11013 11015 11015 11015 11014 11013 11012 11011 11010 11009 11007 11006 11004 11003 11001 11000 10998
10929 10928 10927 10926 10925 10924 10923 10922 10921 10920 10919 10919 10918 10917 10916 10916 10915 10915 10915 10915 10916 10917 10917 10918 10919 10920 10922 10923 10925 10926 10928 10930 10924 10923 10928 10928 10930 10934 10936 10940 10942 10944 10949 10953 10958 10962 10966 10970 10973 10976 10978 10981 10983 10985 10989 10992 10995 10998 11001 11004 11005 11006 11006 11008 11010 11011 11013 11014 11014 11014 11013 11013 11014 11014 11015 11014 11013 11012 11012 11011 11010 11008 11007 11005 11004 11002 11001 10999
10925 10924 10924 10923 10921 10920 10919 10918 10917 10916 10915 10914 10913 10912 10912 10911 10910 10910 10910 10910 10910 10911 10912 10912 10914 10915 10916 10918 10920 10922 10925 10926 10918 10914 10920 10924 10925 10928 10931 10935 10938 10940 10944 10949 10954 10958 10963 10966 10969 10972 10975 10978 10980 10982 10986 10989 10992 10995 10998 11000 11001 11002 11004 11006 11009 11010 11011 11013 11013 11013 11013 11013 11013 11014 11014 11014 11014 11013 11012 11011 11010 11009 11008 11007 11005 11004 11002 11000
10922 10921 10920 10919 10917 10916 10915 10913 10912 10911 10910 10909 10908 10907 10906 10905 10905 10905 10904 10904 10904 10905 10905 10906 10908 10908 10910 10912 10914 10917 10919 10918 10912 10908 10915 10920 10921 10924 10927 10930 10933 10936 10940 10944 10948 10953 10958 10962 10966 10969 10972 10974 10976 10979 10983 10986 10989 10992 10993 10995 10998 11000 11003 11005 11007 11009 11010 11011 11012 11013 11013 11013 11013 11013 11014 11014 11014 11013 11012 11011 11011 11010 11008 11007 11006 11005 11003 11002
10918 10917 10916 10915 10913 10912 10910 10909 10907 10906 10905 10904 10903 10902 10901 10900 10899 10898 10898 10898 10898 10898 10899 10899 10901 10902 10904 10905 10907 10911 10911 10910 10909 10906 10910 10916 10916 10919 10923 10926 10929 10932 10936 10940 10943 10948 10953 10957 10962 10965 10968 10970 10972 10975 10980 10983 10985 10988 10990 10992 10996 10999 11001 11003 11005 11007 11009 11010 11011 11012 11012 11013 11013 11013 11014 11014 11014 11013 11013 11012 11011 11010 11009 11008 11007 11006 11004 11003
10914 10913 10911 10910 10909 10907 10905 10904 10902 10901 10899 10898 10896 10895 10894 10893 10893 10892 10891 10891 10891 10891 10892 10893 10894 10895 10897 10898 10900 10902 10902 10904 10904 10901 10905 10911 10913 10915 10918 10921 10924 10928 10931 10935 10938 10942 10947 10953 10957 10961 10964 10966 10968 10972 10976 10979 10981 10985 10987 10991 10994 10997 10999 11001 11003 11005 11007 11008 11010 11011 11012 11012 11013 11013 11013 11014 11014 11014 11013 11012 11012 11011 11010 11009 11008 11007 11006 11004
10910 10909 10907 10906 10904 10902 10900 10899 10897 10895 10893 10892 10890 10889 10888 10887 10886 10885 10885 10884 10884 10885 10885 10886 10887 10888 10889 10891 10892 10893 10894 10896 10897 10897 10900 10906 10909 10909 10913 10916 10919 10923 10927 10930 10934 10937 10943 10949 10952 10956 10959 10962 10965 10969 10973 10976 10979 10982 10986 10989 10992 10995 10998 11000 11002 11004 11005 11007 11009 11010 11011 11011 11012 11012 11013 11013 11014 11014 11013 11013 11012 11012 11011 11010 11009 11008 11007 11005
10906 10904 10902 10901 10899 10897 10895 10893 10891 10889 10887 10886 10884 10883 10881 10880 10879 10878 10878 10878 10878 10878 10878 10879 10880 10881 10881 10883 10883 10883 10885 10888 10891 10891 10892 10898 10902 10902 10905 10909 10912 10917 10921 10925 10928 10932 10938 10943 10948 10952 10954 10957 10962 10965 10971 10975 10977 10980 10984 10987 10990 10993 10997 10999 11000 11002 11004 11005 11007 11009 11010 11010 11010 11011 11012 11013 11013 11014 11014 11013 11013 11012 11011 11010 11010 11009 11008 11007
10902 10900 10898 10896 10894 10892 10889 10887 10885 10883 10881 10879 10878 10876 10875 10874 10873 10872 10871 10871 10871 10871 10871 10871 10872 10872 10873 10873 10873 10874 10877 10879 10881 10882 10882 10888 10893 10894 10898 10902 10905 10910 10914 10919 10923 10927 10932 10938 10942 10945 10948 10953 10958 10961 10966 10972 10975 10979 10982 10984 10987 10991 10996 10998 10998 11000 11002 11003 11005 11007 11008 11009 11009 11010 11011 11012 11013 11014 11014 11014 11013 11013 11012 11011 11010 11010 11009 11008
10898 10896 10893 10891 10888 10886 10884 10881 10879 10877 10875 10873 10871 10870 10868 10867 10866 10865 10864 10864 10863 10863 10862 10861 10862 10862 10862 10862 10862 10864 10867 10868 10869 10870 10872 10877 10883 10886 10890 10894 10898 10902 10907 10913 10917 10922 10926 10931 10935 10938 10944 10950 10953 10957 10962 10967 10972 10977 10979 10980 10984 10988 10992 10995 10995 10998 11000 11002 11004 11005 11006 11007 11008 11009 11010 11012 11012 11013 11014 11014 11014 11013 11012 11011 11011 11011 11010 11009
10893 10891 10888 10885 10883 10880 10877 10875 10873 10870 10868 10866 10865 10863 10862 10860 10859 10857 10856 10855 10854 10853 10852 10851 10850 10850 10850 10850 10849 10851 10854 10855 10856 10858 10861 10867 10873 10878 10882 10887 10891 10895 10900 10906 10911 10915 10920 10924 10929 10933 10940 10945 10949 10953 10958 10964 10968 10972 10975 10978 10981 10985 10990 10992 10994 10997 10998 11001 11002 11003 11005 11006 11008 11009 11010 11011 11012 11013 11014 11014 11014 11013 11013 11012 11011 11011 11011 11010
10888 10886 10882 10880 10877 10874 10871 10869 10866 10864 10862 10860 10859 10857 10855 10853 10851 10850 10848 10846 10845 10843 10841 10839 10837 10837 10836 10834 10835 10837 10839 10840 10842 10846 10851 10857 10864 10869 10874 10878 10883 10887 10893 10899 10905 10909 10913 10918 10923 10928 10934 10940 10944 10949 10953 10958 10962 10966 10971 10975 10979 10984 10987 10990 10992 10995 10996 10998 10999 11001 11003 11005 11007 11008 11009 11010 11011 11012 11013 11014 11014 11014 11013 11013 11012 11012 11012 11011
10882 10880 10877 10874 10871 10868 10865 10863 10860 10858 10856 10854 10852 10850 10848 10846 10844 10841 10839 10837 10835 10832 10829 10826 10824 10823 10820 10818 10819 10820 10821 10824 10829 10835 10841 10846 10853 10859 10864 10869 10874 10880 10886 10893 10898 10902 10907 10911 10916 10922 10930 10936 10941 10944 10948 10953 10957 10960 10965 10971 10976 10980 10984 10987 10990 10992 10994 10995 10997 10999 11002 11004 11006 11007 11008 11009 11010 11011 11013 11013 11014 11014 11013 11013 11013 11013 11012 11012
10877 10874 10871 10868 10865 10862 10859 10856 10854 10852 10850 10848 10846 10844 10841 10839 10836 10833 10830 10826 10823 10820 10816 10812 10809 10808 10804 10801 10801 10801 10804 10810 10818 10824 10828 10834 10842 10847 10853 10859 10866 10872 10879 10885 10890 10895 10899 10904 10911 10919 10927 10932 10936 10940 10943 10948 10952 10956 10960 10966 10971 10976 10980 10985 10988 10990 10993 10994 10996 10998 11000 11002 11005 11006 11007 11008 11009 11011 11012 11013 11014 11014 11014 11013 11013 11013 11013 11012
10871 10868 10865 10862 10859 10856 10853 10851 10849 10847 10845 10842 10840 10837 10834 10831 10828 10823 10820 10816 10812 10808 10803 10798 10795 10792 10788 10784 10782 10784 10789 10796 10803 10809 10814 10821 10828 10834 10842 10851 10858 10865 10871 10876 10881 10887 10892 10900 10908 10914 10920 10925 10930 10935 10938 10943 10948 10953 10957 10962 10967 10972 10978 10982 10986 10989 10991 10993 10994 10996 10998 11000 11003 11005 11007 11008 11009 11010 11011 11013 11013 11014 11014 11014 11014 11014 11014 11013
10865 10862 10859 10856 10853 10850 10847 10845 10843 10841 10839 10836 10833 10830 10827 10823 10820 10815 10809 10804 10800 10796 10789 10785 10780 10776 10771 10768 10767 10770 10774 10779 10786 10793 10800 10808 10815 10823 10833 10842 10850 10856 10862 10868 10874 10880 10888 10896 10902 10907 10913 10919 10925 10929 10933 10938 10944 10949 10955 10961 10966 10971 10975 10980 10984 10986 10987 10990 10993 10994 10996 10999 11001 11003 11005 11007 11008 11009 11010 11012 11013 11014 11014 11015 11015 11014 11014 11014
10859 10856 10853 10850 10847 10845 10842 10840 10838 10836 10833 10830 10826 10823 10819 10815 10811 10806 10799 10793 10789 10784 10777 10772 10766 10761 10757 10755 10755 10758 10760 10765 10771 10778 10786 10795 10803 10812 10822 10832 10840 10846 10852 10860 10867 10876 10884 10890 10895 10900 10906 10912 10919 10923 10928 10935 10940 10946 10954 10959 10964 10969 10973 10977 10981 10984 10985 10987 10990 10992 10995 10997 10999 11002 11004 11006 11008 11009 11009 11011 11012 11013 11014 11015 11015 11015 11015 11015
10853 10850 10847 10844 10842 10840 10838 10836 10833 10830 10827 10823 10820 10816 10812 10807 10803 10797 10790 10783 10777 10772 10766 10759 10754 10749 10746 10744 10745 10747 10749 10754 10758 10764 10773 10782 10792 10802 10811 10821 10830 10836 10844 10853 10862 10871 10877 10882 10887 10893 10900 10906 10912 10918 10924 10931 10936 10943 10950 10956 10962 10966 10970 10973 10977 10981 10983 10985 10989 10991 10993 10995 10998 11000 11003 11005 11007 11008 11008 11010 11011 11012 11014 11015 11015 11016 11015 11015
10848 10845 10842 10839 10837 10835 10833 10831 10828 10824 10821 10817 10812 10808 10804 10800 10794 10787 10780 10773 10767 10761 10755 10749 10743 10739 10737 10735 10736 10738 10740 10743 10748 10754 10761 10771 10782 10791 10800 10810 10819 10827 10837 10846 10856 10864 10869 10874 10880 10886 10892 10899 10907 10914 10921 10927 10933 10940 10947 10954 10960 10963 10966 10970 10974 10977 10980 10983 10987 10990 10992 10993 10996 10999 11001 11003 11005 11006 11008 11009 11011 11012 11013 11015 11016 11016 11016 11016
10842 10839 10837 10835 10833 10831 10829 10826 10822 10819 10815 10810 10805 10801 10796 10791 10785 10777 10770 10763 10757 10752 10746 10739 10734 10731 10729 10728 10728 10729 10732 10735 10740 10744 10751 10761 10772 10781 10790 10800 10809 10818 10829 10838 10848 10856 10860 10865 10873 10880 10887 10895 10903 10910 10915 10922 10929 10935 10942 10950 10955 10958 10962 10967 10970 10973 10977 10981 10984 10986 10989 10991 10994 10996 10999 11001 11003 11005 11007 11008 11010 11012 11013 11014 11016 11017 11017 11017
10837 10835 10832 10831 10829 10827 10824 10820 10817 10813 10809 10804 10798 10793 10788 10782 10776 10769 10762 10755 10748 10743 10738 10732 10727 10724 10722 10721 10721 10722 10724 10728 10732 10735 10743 10753 10762 10772 10782 10792 10800 10809 10819 10829 10839 10847 10852 10859 10867 10875 10883 10891 10898 10903 10910 10917 10924 10930 10938 10945 10950 10955 10959 10963 10967 10970 10974 10978 10980 10983 10986 10988 10991 10994 10997 11000 11002 11004 11006 11008 11009 11011 11013 11014 11016 11017 11018 11017
10833 10830 10829 10827 10825 10822 10819 10816 10811 10807 10802 10797 10791 10786 10780 10775 10768 10761 10755 10748 10741 10735 10730 10725 10721 10718 10716 10715 10715 10716 10718 10721 10724 10729 10737 10745 10753 10763 10774 10784 10792 10802 10812 10823 10833 10840 10845 10853 10862 10870 10879 10886 10891 10897 10904 10910 10917 10927 10934 10940 10946 10951 10955 10959 10963 10967 10972 10975 10977 10981 10983 10986 10989 10991 10994 10997 11000 11002 11004 11006 11008 11010 11012 11014 11015 11017 11018 11018
10829 10827 10825 10823 10821 10818 10815 10811 10806 10801 10796 10791 10785 10779 10774 10767 10760 10753 10747 10740 10734 10728 10723 10718 10716 10713 10711 10710 10710 10711 10712 10714 10718 10724 10731 10739 10746 10755 10765 10774 10783 10793 10802 10813 10825 10832 10838 10847 10855 10863 10873 10879 10884 10891 10898 10904 10914 10922 10927 10932 10940 10946 10951 10956 10960 10964 10969 10972 10975 10978 10980 10983 10986 10988 10991 10995 10998 11000 11002 11005 11007 11009 11011 11013 11015 11016 11017 11018
10825 10823 10821 10819 10817 10814 10810 10806 10801 10796 10791 10785 10779 10773 10766 10760 10753 10746 10739 10733 10727 10722 10717 10713 10710 10708 10707 10706 10705 10706 10707 10709 10712 10717 10724 10732 10739 10748 10758 10767 10777 10788 10797 10808 10818 10823 10829 10837 10845 10856 10866 10872 10880 10887 10893 10902 10912 10916 10920 10927 10935 10942 10947 10952 10956 10960 10964 10968 10972 10975 10977 10980 10983 10986 10990 10993 10996 10998 11000 11003 11006 11008 11010 11012 11014 11016 11017 11018
10822 10820 10818 10816 10813 10809 10806 10801 10796 10791 10785 10779 10773 10766 10759 10753 10746 10739 10733 10727 10720 10716 10712 10708 10705 10704 10702 10701 10701 10701 10702 10704 10707 10713 10719 10725 10733 10743 10752 10762 10775 10786 10796 10807 10812 10813 10819 10828 10839 10852 10860 10865 10873 10881 10889 10899 10907 10912 10919 10926 10932 10938 10943 10948 10953 10957 10961 10965 10969 10972 10974 10978 10981 10984 10988 10991 10993 10995 10998 11001 11004 11007 11008 11010 11013 11015 11016 11018
10819 10817 10814 10812 10809 10805 10801 10797 10791 10786 10779 10773 10767 10760 10753 10746 10739 10733 10727 10721 10715 10710 10707 10704 10701 10700 10699 10698 10697 10697 10698 10701 10704 10709 10714 10720 10729 10739 10749 10759 10771 10782 10793 10800 10802 10806 10816 10827 10838 10847 10852 10860 10870 10876 10884 10894 10901 10909 10917 10923 10929 10935 10940 10945 10950 10954 10958 10963 10966 10969 10972 10975 10977 10981 10984 10986 10989 10992 10996 10999 11002 11005 11007 11009 11011 11013 11016 11017
10815 10813 10811 10808 10805 10801 10797 10792 10787 10781 10774 10767 10761 10754 10747 10740 10733 10726 10721 10716 10710 10705 10702 10700 10698 10696 10695 10694 10694 10694 10695 10697 10700 10704 10709 10716 10725 10735 10745 10755 10765 10775 10783 10787 10793 10804 10816 10826 10836 10842 10849 10861 10868 10872 10880 10888 10897 10905 10911 10918 10925 10931 10937 10942 10946 10949 10955 10960 10962 10965 10969 10971 10974 10977 10980 10982 10986 10990 10993 10997 11000 11003 11005 11007 11009 11012 11015 11017
10812 10810 10807 10804 10801 10797 10792 10788 10782 10777 10770 10762 10755 10748 10742 10735 10727 10720 10715 10710 10706 10701 10698 10697 10695 10693 10692 10692 10691 10692 10692 10694 10696 10700 10705 10712 10721 10730 10739 10749 10760 10768 10772 10774 10783 10797 10811 10822 10831 10840 10850 10858 10861 10868 10877 10885 10893 10901 10906 10913 10920 10926 10933 10938 10941 10945 10951 10956 10958 10961 10965 10968 10971 10973 10976 10980 10983 10987 10990 10994 10997 11000 11002 11004 11007 11010 11013 11016
10809 10807 10804 10801 10797 10793 10788 10783 10778 10773 10766 10758 10751 10743 10737 10730 10722 10715 10709 10705 10701 10698 10695 10693 10692 10691 10690 10689 10690 10690 10690 10692 10694 10698 10703 10709 10717 10726 10736 10747 10754 10761 10767 10772 10781 10791 10802 10815 10826 10836 10846 10852 10857 10863 10869 10878 10890 10897 10901 10909 10915 10921 10927 10932 10936 10941 10946 10950 10953 10957 10960 10964 10968 10970 10973 10977 10981 10985 10989 10992 10995 10998 11000 11002 11005 11008 11011 11014
10806 10803 10800 10797 10793 10789 10784 10779 10774 10768 10762 10754 10747 10739 10732 10725 10718 10711 10705 10701 10697 10694 10692 10690 10689 10689 10688 10688 10688 10688 10689 10690 10694 10698 10702 10707 10713 10722 10734 10742 10748 10756 10764 10773 10784 10791 10797 10806 10816 10825 10833 10841 10848 10856 10863 10874 10884 10891 10899 10906 10910 10915 10921 10926 10930 10936 10941 10946 10949 10952 10956 10960 10964 10967 10971 10975 10978 10982 10987 10990 10992 10994 10996 11000 11004 11006 11009 11012
10803 10800 10797 10794 10790 10785 10780 10775 10770 10764 10757 10750 10742 10735 10729 10721 10714 10707 10702 10698 10694 10691 10689 10687 10687 10686 10686 10686 10686 10686 10687 10689 10693 10697 10700 10705 10711 10721 10729 10736 10743 10750 10757 10767 10777 10785 10793 10801 10807 10815 10822 10829 10836 10846 10857 10868 10876 10883 10892 10899 10903 10908 10915 10919 10924 10931 10937 10942 10944 10948 10953 10957 10960 10963 10967 10972 10975 10979 10983 10987 10989 10990 10992 10998 11001 11004 11007 11010
10800 10797 10794 10790 10786 10781 10777 10772 10766 10759 10753 10746 10738 10732 10725 10718 10710 10704 10698 10695 10691 10689 10686 10685 10685 10685 10685 10685 10684 10685 10686 10687 10691 10695 10699 10703 10710 10718 10726 10731 10736 10741 10750 10763 10772 10778 10788 10797 10803 10811 10817 10822 10830 10840 10850 10860 10870 10875 10880 10887 10895 10904 10911 10915 10920 10927 10933 10936 10939 10943 10948 10953 10957 10960 10965 10969 10972 10976 10980 10983 10986 10988 10991 10996 10999 11002 11005 11008
10796 10793 10790 10787 10783 10778 10773 10768 10762 10755 10749 10742 10735 10728 10722 10715 10707 10701 10695 10691 10689 10686 10684 10683 10683 10683 10683 10683 10684 10684 10685 10687 10690 10694 10697 10702 10708 10715 10721 10728 10734 10740 10750 10760 10765 10772 10781 10788 10798 10809 10814 10820 10829 10837 10846 10857 10867 10874 10879 10885 10891 10899 10907 10912 10917 10922 10927 10931 10934 10939 10945 10950 10954 10958 10962 10966 10969 10972 10975 10979 10982 10986 10989 10993 10997 11000 11003 11006
10793 10790 10787 10784 10779 10774 10769 10764 10758 10752 10746 10739 10731 10724 10718 10711 10704 10698 10693 10689 10686 10684 10682 10681 10681 10682 10682 10682 10683 10684 10685 10686 10689 10692 10696 10701 10706 10712 10719 10726 10736 10748 10758 10761 10764 10772 10779 10784 10794 10802 10806 10815 10826 10834 10844 10853 10862 10872 10879 10882 10885 10893 10900 10904 10910 10916 10921 10925 10930 10936 10942 10947 10950 10954 10959 10963 10965 10968 10972 10975 10979 10983 10986 10991 10995 10998 11001 11005
10791 10787 10784 10780 10776 10770 10765 10760 10755 10749 10743 10736 10729 10722 10715 10707 10701 10696 10691 10686 10683 10682 10680 10680 10680 10680 10681 10681 10682 10683 10684 10686 10688 10690 10694 10698 10702 10708 10716 10724 10734 10745 10756 10761 10768 10775 10779 10783 10791 10794 10799 10811 10821 10829 10838 10848 10858 10866 10869 10872 10880 10888 10892 10896 10902 10909 10914 10919 10927 10933 10939 10944 10947 10951 10955 10958 10961 10964 10969 10973 10977 10981 10985 10989 10993 10996 11000 11003
10788 10785 10781 10777 10773 10768 10762 10757 10752 10746 10740 10733 10726 10719 10713 10705 10698 10693 10689 10685 10681 10679 10678 10678 10678 10679 10679 10680 10681 10681 10683 10685 10687 10690 10692 10695 10700 10705 10712 10722 10732 10743 10750 10754 10761 10767 10769 10776 10785 10792 10800 10810 10817 10826 10836 10845 10854 10858 10860 10865 10873 10878 10885 10891 10896 10901 10906 10914 10922 10929 10936 10942 10946 10948 10952 10955 10958 10962 10966 10970 10974 10979 10983 10987 10990 10994 10998 11001
10786 10783 10779 10775 10770 10765 10760 10754 10748 10743 10737 10730 10723 10717 10711 10704 10697 10691 10687 10683 10680 10677 10676 10676 10677 10677 10678 10679 10680 10681 10682 10683 10687 10690 10692 10695 10700 10705 10711 10722 10734 10743 10746 10749 10753 10756 10760 10772 10786 10796 10805 10813 10819 10827 10837 10843 10849 10853 10855 10860 10865 10871 10880 10886 10888 10894 10901 10909 10918 10926 10932 10938 10942 10945 10948 10951 10956 10960 10964 10968 10972 10976 10980 10984 10988 10992 10995 10998
10782 10779 10776 10772 10767 10762 10757 10752 10746 10740 10734 10728 10721 10715 10708 10702 10696 10690 10685 10682 10678 10676 10674 10675 10675 10676 10677 10678 10679 10680 10681 10682 10685 10688 10691 10696 10701 10704 10711 10720 10729 10734 10738 10745 10753 10757 10763 10775 10788 10797 10806 10814 10819 10825 10832 10838 10844 10847 10849 10854 10860 10866 10874 10879 10883 10890 10897 10904 10912 10919 10926 10933 10937 10941 10945 10949 10953 10958 10961 10966 10970 10973 10977 10981 10984 10987 10990 10994
10779 10776 10772 10768 10764 10759 10754 10749 10743 10738 10732 10726 10719 10713 10706 10700 10694 10688 10683 10680 10677 10675 10673 10673 10674 10675 10676 10677 10678 10679 10680 10682 10684 10687 10691 10696 10700 10704 10711 10719 10726 10731 10738 10745 10750 10757 10769 10780 10787 10792 10798 10803 10809 10818 10826 10832 10837 10841 10846 10853 10858 10862 10869 10874 10878 10885 10890 10897 10905 10913 10920 10927 10933 10938 10942 10946 10950 10955 10959 10963 10967 10970 10974 10977 10980 10983 10987 10992
10776 10773 10769 10765 10760 10756 10752 10746 10741 10735 10729 10723 10717 10711 10705 10699 10692 10687 10682 10678 10676 10674 10672 10672 10673 10674 10675 10675 10677 10678 10680 10682 10684 10686 10690 10694 10698 10704 10712 10719 10725 10730 10736 10742 10747 10755 10769 10778 10783 10790 10795 10799 10806 10816 10822 10828 10834 10838 10841 10845 10847 10853 10861 10866 10871 10877 10882 10890 10901 10909 10916 10924 10929 10934 10938 10943 10947 10952 10956 10961 10964 10967 10970 10973 10975 10980 10985 10990
10772 10770 10767 10764 10758 10753 10749 10744 10738 10733 10727 10721 10716 10710 10704 10698 10691 10686 10681 10677 10674 10672 10671 10671 10671 10672 10673 10674 10676 10678 10679 10681 10683 10685 10689 10692 10697 10704 10711 10717 10721 10725 10730 10737 10745 10754 10765 10771 10777 10788 10795 10800 10809 10817 10821 10826 10831 10832 10832 10835 10840 10848 10855 10859 10864 10869 10874 10885 10899 10906 10912 10920 10925 10930 10935 10940 10944 10948 10953 10958 10962 10964 10967 10969 10971 10976 10983 10987
10769 10765 10763 10760 10757 10751 10746 10741 10736 10731 10725 10720 10714 10708 10703 10697 10691 10685 10680 10676 10673 10671 10670 10669 10670 10671 10672 10673 10675 10677 10679 10680 10681 10683 10687 10690 10694 10700 10707 10713 10717 10721 10727 10733 10740 10749 10759 10765 10772 10781 10786 10791 10800 10808 10812 10816 10819 10821 10826 10832 10837 10842 10845 10848 10853 10858 10866 10882 10895 10901 10908 10917 10922 10927 10932 10937 10941 10947 10952 10956 10959 10960 10961 10963 10967 10973 10980 10985
10765 10762 10758 10755 10752 10748 10744 10739 10734 10729 10724 10719 10712 10706 10701 10696 10691 10685 10680 10675 10672 10670 10669 10668 10668 10669 10670 10672 10674 10676 10677 10679 10680 10682 10684 10687 10690 10695 10701 10708 10713 10719 10725 10730 10737 10746 10755 10761 10767 10774 10781 10786 10792 10799 10803 10807 10810 10812 10815 10818 10821 10825 10828 10832 10839 10849 10862 10876 10886 10894 10904 10913 10919 10924 10930 10935 10941 10945 10950 10953 10955 10955 10957 10961 10964 10969 10975 10981
10761 10758 10755 10752 10748 10745 10741 10736 10731 10726 10721 10716 10711 10705 10700 10695 10689 10684 10679 10675 10671 10669 10667 10667 10667 10668 10669 10671 10673 10674 10676 10678 10680 10681 10682 10684 10687 10691 10698 10703 10708 10714 10720 10727 10737 10747 10755 10760 10765 10772 10779 10783 10789 10795 10798 10799 10800 10802 10805 10808 10811 10816 10820 10828 10839 10851 10862 10874 10886 10896 10902 10909 10915 10921 10927 10934 10939 10943 10948 10951 10952 10953 10957 10962 10965 10967 10972 10977
10758 10755 10752 10749 10745 10741 10738 10734 10729 10725 10719 10714 10709 10704 10699 10694 10688 10682 10678 10674 10670 10668 10666 10665 10665 10666 10667 10669 10671 10673 10675 10677 10679 10680 10682 10684 10687 10690 10695 10698 10702 10707 10714 10723 10733 10742 10749 10755 10761 10768 10772 10776 10783 10789 10791 10789 10787 10791 10799 10802 10805 10813 10822 10834 10847 10855 10863 10876 10891 10898 10902 10907 10913 10918 10925 10932 10937 10942 10947 10948 10949 10951 10955 10960 10964 10966 10970 10974
10755 10751 10748 10746 10742 10738 10735 10731 10727 10723 10718 10713 10707 10703 10698 10693 10688 10682 10677 10673 10669 10667 10664 10663 10663 10664 10666 10667 10669 10671 10673 10675 10677 10679 10681 10683 10686 10688 10692 10695 10698 10703 10710 10719 10728 10735 10742 10748 10755 10761 10765 10768 10772 10775 10778 10777 10777 10786 10794 10793 10797 10810 10822 10832 10840 10848 10860 10877 10890 10893 10895 10902 10909 10915 10922 10930 10935 10941 10946 10947 10947 10948 10951 10956 10959 10962 10965 10968
10752 10748 10745 10742 10740 10736 10732 10729 10725 10721 10716 10712 10707 10701 10697 10692 10687 10682 10676 10672 10668 10666 10663 10662 10662 10662 10664 10665 10667 10669 10671 10673 10676 10678 10680 10682 10684 10687 10690 10692 10696 10701 10708 10716 10722 10728 10736 10742 10748 10754 10759 10764 10766 10765 10765 10765 10768 10780 10787 10787 10797 10814 10825 10830 10836 10843 10856 10873 10882 10885 10889 10895 10902 10908 10916 10925 10929 10932 10936 10939 10941 10943 10947 10949 10952 10957 10961 10964